Vorticity
6 1 8 8 10 7 6 6 4 2 2 2 1 3 3 3 4 3 3 4 3 5 2 1 2 1 1 0 1 1 0 2 4 6 5 1 2 4 2 4 9 7 5
5 1 4 5 10 7 5 4 3 2 1 1 3 6 4 1 -1 -0 0 1 3 2 -0 2 1 -1 0 0 -0 -0 -1 1 3 2 5 5 3 3 3 4 7 9 7
8 3 4 4 8 5 4 5 5 4 2 2 2 1 1 3 3 2 2 1 -0 1 1 1 2 2 1 -1 1 -0 -1 0 2 -1 3 4 6 3 3 2 3 8 10
8 5 4 4 4 8 5 4 3 3 2 2 2 2 2 2 3 3 4 3 3 3 2 2 3 2 3 2 0 1 -0 -0 1 1 -1 2 5 8 4 2 2 3 7
6 5 5 4 6 6 7 5 5 4 4 3 3 3 3 4 4 3 3 3 4 5 5 5 4 3 5 4 4 2 1 1 1 2 -1 4 2 5 8 4 3 1 4
4 1 6 3 6 7 6 4 3 2 2 3 3 4 4 3 3 3 3 3 4 5 7 8 7 7 5 3 6 6 3 3 1 2 2 2 2 4 4 6 3 2 0
9 7 2 5 2 5 7 4 2 2 2 2 2 2 2 3 3 3 3 3 3 3 5 5 5 7 8 7 4 4 8 5 3 2 1 3 4 2 3 4 6 3 4
1 6 11 4 5 5 5 4 5 4 3 1 0 1 1 1 2 2 2 2 2 2 1 2 3 3 4 7 9 7 5 4 4 4 3 3 3 3 2 4 4 5 5
3 1 1 6 6 5 8 6 5 7 6 8 8 7 5 4 3 3 3 4 5 5 4 3 4 4 2 2 2 5 8 9 7 5 3 6 4 4 2 3 4 3 5
3 2 2 2 4 2 3 6 7 5 3 4 6 5 5 4 5 6 8 11 7 5 7 10 8 5 6 4 4 3 3 5 6 7 7 9 7 5 3 3 3 2 4
5 4 5 4 3 3 4 2 2 2 3 -0 2 3 4 4 3 3 3 6 6 10 8 5 10 9 7 8 6 5 6 5 6 5 4 4 2 3 3 4 2 2 0
8 7 5 4 4 3 3 2 0 2 1 0 1 5 5 5 4 3 3 4 11 3 15 17 10 4 5 5 8 9 6 3 4 4 3 3 4 4 4 4 4 2 3
9 0 3 4 4 3 4 4 3 4 3 4 6 8 6 4 7 4 5 7 9 1 -4 -3 22 -5 4 2 2 -2 7 6 5 3 4 3 4 2 3 4 2 3 4
3 6 2 2 4 8 11 7 6 3 6 5 5 4 6 7 8 7 6 7 10 4 5 5 3 1 4 5 6 5 7 30 3 7 6 9 3 3 1 6 5 -4 -3
3 4 3 14 5 3 6 5 5 4 3 4 4 4 5 5 7 8 7 11 6 2 6 4 4 5 5 5 4 3 5 13 25 -3 11 4 8 4 2 6 6 4 -3
9 14 11 8 9 10 9 4 3 3 6 11 11 8 2 3 -1 3 2 2 6 7 6 4 6 5 5 7 7 7 6 5 6 3 8 6 6 3 0 6 2 4 7
11 10 9 9 14 9 7 4 4 3 7 5 6 4 5 7 6 6 7 7 4 1 2 4 5 6 5 5 7 8 7 8 7 6 7 6 7 3 6 4 6 7 5
11 7 9 7 9 10 10 8 6 3 6 3 4 4 4 5 8 5 6 7 9 7 7 7 6 5 4 4 5 6 6 5 7 8 8 7 7 9 8 7 6 7 4
4 3 4 6 10 4 4 3 3 2 1 4 6 5 4 5 8 5 7 6 6 7 5 5 6 6 5 4 4 4 5 5 4 4 4 5 5 5 5 5 6 4 4
45 2 8 5 3 8 5 6 4 6 4 6 7 7 7 -0 2 -1 -5 7 9 7 0 5 6 4 3 3 4 6 6 4 2 4 7 8 9 7 8 8 8 8 7
12 6 2 56 15 -10 -6 4 23 7 2 1 0 0 9 -4 -3 6 3 -4 11 1 -1 5 5 7 9 4 7 6 8 11 8 9 7 7 9 10 9 8 6 7 8
13 6 11 12 10 6 22 30 29 19 6 3 -6 5 13 2 9 8 9 3 0 6 4 20 19 9 -3 6 2 6 9 5 6 7 7 6 6 5 8 7 5 8 9
20 3 8 10 9 6 5 6 7 5 8 11 21 10 30 18 36 6 6 -1 5 6 12 -3 -1 14 13 5 6 3 4 -1 3 1 -2 3 9 7 8 8 9 8 6
-2 2 5 6 9 15 12 8 7 7 7 13 5 3 5 11 11 2 8 -0 38 11 3 9 7 -5 6 12 9 3 9 8 5 6 7 14 16 10 8 12 11 9 8
-0 4 9 7 2 3 4 4 3 6 8 10 4 8 7 3 13 15 20 27 16 16 16 24 21 20 19 29 21 25 19 15 13 15 11 13 11 7 10 9 11 7 9
18 11 13 20 23 16 12 7 3 9 9 10 10 8 3 6 8 7 7 -2 -4 5 4 8 10 7 5 6 14 16 13 12 15 14 11 10 8 6 8 7 4 7 8
Height
5878 5877 5875 5875 5875 5874 5874 5874 5874 5874 5874 5874 5875 5875 5876 5876 5877 5877 5877 5877 5878 5877 5877 5876 5875 5874 5874 5873 5872 5872 5871 5869 5868 5867 5865 5865 5863 5861 5859 5858 5856 5855 5855
5878 5877 5876 5876 5877 5876 5876 5875 5875 5875 5875 5876 5876 5876 5877 5877 5877 5877 5877 5877 5877 5877 5877 5876 5875 5875 5874 5873 5872 5872 5871 5870 5869 5867 5866 5865 5864 5862 5859 5858 5856 5855 5855
5876 5876 5876 5876 5877 5878 5878 5878 5877 5877 5877 5877 5877 5877 5878 5878 5877 5877 5878 5877 5877 5877 5876 5875 5875 5874 5874 5873 5873 5873 5871 5870 5869 5867 5867 5865 5864 5862 5860 5858 5857 5856 5855
5875 5875 5876 5876 5876 5877 5877 5878 5878 5878 5877 5877 5877 5878 5878 5878 5878 5878 5878 5878 5878 5877 5877 5876 5875 5875 5874 5873 5873 5872 5871 5870 5869 5868 5867 5865 5864 5862 5860 5858 5857 5856 5855
5875 5874 5874 5874 5875 5876 5877 5877 5878 5878 5878 5878 5879 5879 5878 5878 5878 5878 5878 5878 5878 5877 5876 5876 5876 5874 5873 5873 5873 5872 5871 5870 5869 5867 5866 5865 5864 5861 5860 5859 5857 5856 5855
5873 5873 5872 5872 5872 5873 5874 5875 5875 5876 5876 5876 5876 5876 5877 5877 5877 5877 5877 5878 5877 5877 5876 5875 5874 5873 5872 5871 5871 5870 5869 5869 5868 5867 5866 5865 5863 5862 5860 5858 5858 5856 5854
5872 5871 5871 5872 5871 5871 5871 5871 5871 5872 5872 5873 5873 5874 5874 5874 5874 5874 5874 5874 5874 5874 5873 5873 5872 5872 5871 5870 5869 5869 5868 5867 5866 5865 5864 5863 5862 5861 5860 5859 5858 5856 5855
5869 5870 5870 5871 5871 5870 5870 5870 5870 5870 5869 5869 5870 5870 5870 5870 5870 5870 5870 5870 5869 5869 5868 5868 5867 5867 5867 5867 5866 5866 5865 5864 5863 5863 5862 5861 5860 5859 5859 5858 5858 5856 5854
5867 5867 5867 5867 5869 5869 5869 5868 5868 5868 5868 5868 5867 5867 5867 5866 5866 5865 5865 5865 5865 5865 5865 5864 5863 5862 5862 5861 5861 5861 5860 5860 5860 5860 5859 5859 5857 5857 5857 5856 5856 5855 5853
5866 5865 5865 5864 5864 5864 5865 5865 5865 5865 5864 5864 5863 5863 5863 5862 5862 5861 5861 5860 5860 5860 5859 5860 5859 5857 5857 5857 5856 5856 5855 5855 5855 5854 5854 5855 5855 5855 5854 5854 5852 5852 5851
5864 5863 5862 5861 5860 5861 5860 5859 5859 5859 5859 5859 5859 5858 5857 5857 5857 5856 5855 5856 5855 5854 5852 5852 5853 5853 5852 5852 5852 5851 5850 5849 5850 5850 5849 5851 5850 5850 5850 5849 5849 5849 5849
5861 5859 5858 5857 5857 5856 5856 5855 5854 5853 5853 5853 5854 5853 5851 5851 5850 5848 5848 5848 5848 5847 5846 5845 5845 5846 5847 5846 5846 5845 5845 5844 5844 5844 5843 5845 5844 5844 5844 5845 5845 5845 5845
5855 5853 5852 5851 5851 5850 5849 5850 5849 5848 5847 5846 5847 5847 5846 5845 5844 5842 5842 5841 5840 5840 5839 5838 5837 5838 5840 5839 5838 5840 5839 5838 5837 5837 5837 5839 5837 5838 5838 5839 5839 5839 5840
5850 5849 5848 5847 5845 5844 5843 5843 5841 5841 5840 5839 5838 5839 5838 5838 5837 5836 5835 5834 5834 5831 5831 5831 5830 5831 5830 5832 5832 5828 5831 5829 5831 5832 5830 5832 5832 5832 5833 5833 5833 5833 5833
5845 5844 5845 5842 5841 5839 5838 5837 5836 5835 5833 5832 5831 5831 5830 5829 5830 5829 5826 5825 5826 5826 5825 5825 5825 5825 5825 5825 5824 5824 5824 5823 5822 5822 5824 5823 5825 5825 5827 5827 5827 5827 5826
5839 5837 5836 5835 5834 5832 5831 5831 5828 5827 5826 5825 5825 5824 5823 5823 5822 5821 5820 5818 5818 5818 5818 5817 5817 5816 5816 5816 5816 5816 5817 5816 5816 5816 5814 5814 5816 5818 5817 5819 5820 5819 5819
5831 5829 5828 5827 5826 5826 5823 5823 5821 5821 5819 5818 5818 5817 5816 5815 5814 5813 5812 5811 5811 5809 5809 5809 5808 5807 5807 5807 5808 5807 5808 5809 5808 5808 5808 5809 5809 5809 5810 5811 5812 5812 5812
5827 5824 5822 5820 5817 5818 5817 5815 5814 5812 5811 5810 5808 5807 5806 5806 5804 5802 5801 5801 5800 5800 5799 5798 5797 5796 5797 5796 5797 5797 5798 5798 5799 5799 5799 5799 5799 5801 5802 5802 5804 5805 5804
5818 5817 5813 5811 5809 5808 5807 5806 5805 5803 5802 5800 5799 5798 5796 5795 5794 5792 5790 5790 5789 5789 5788 5787 5787 5786 5786 5785 5785 5786 5788 5788 5788 5789 5789 5789 5789 5790 5791 5793 5794 5795 5796
5810 5808 5806 5803 5799 5797 5795 5791 5789 5787 5786 5786 5786 5785 5784 5784 5784 5783 5781 5780 5779 5778 5776 5776 5776 5775 5775 5774 5774 5774 5775 5776 5777 5777 5777 5777 5777 5778 5779 5780 5783 5784 5785
5804 5801 5797 5794 5792 5788 5786 5784 5784 5782 5779 5777 5773 5773 5773 5771 5770 5770 5768 5768 5767 5766 5765 5765 5765 5765 5764 5762 5763 5763 5763 5764 5764 5764 5764 5764 5766 5766 5767 5769 5769 5771 5774
5798 5795 5792 5787 5784 5780 5776 5773 5770 5768 5766 5765 5762 5761 5759 5757 5755 5754 5753 5752 5752 5751 5750 5749 5749 5749 5749 5748 5748 5748 5750 5751 5748 5750 5753 5751 5752 5751 5755 5755 5755 5758 5760
5791 5788 5783 5779 5775 5771 5767 5763 5760 5758 5755 5751 5748 5746 5743 5742 5741 5739 5737 5736 5735 5734 5734 5733 5733 5732 5732 5731 5731 5732 5732 5733 5733 5733 5736 5735 5735 5737 5738 5740 5741 5743 5745
5783 5779 5776 5772 5768 5762 5757 5753 5749 5746 5742 5739 5735 5731 5729 5728 5726 5723 5721 5719 5718 5718 5717 5717 5718 5717 5716 5716 5714 5715 5716 5715 5715 5717 5717 5718 5718 5719 5721 5723 5725 5727 5729
5774 5771 5766 5762 5757 5752 5747 5743 5738 5733 5728 5725 5722 5718 5715 5715 5713 5710 5707 5706 5705 5703 5702 5701 5701 5700 5698 5698 5697 5696 5696 5697 5697 5697 5699 5698 5699 5701 5703 5705 5706 5709 5711
5765 5761 5756 5750 5745 5741 5737 5732 5727 5722 5717 5712 5708 5705 5703 5701 5699 5697 5695 5693 5692 5690 5689 5687 5686 5684 5682 5681 5680 5679 5678 5679 5679 5681 5681 5684 5682 5683 5684 5686 5687 5689 5691